Theta_e
307 308 309 310 313 315 316 316 317 317 317 317 316 317 318 320 321 324 326 326 326 325 322 320 319 320 318 318 318 318 318 319 320 318 319 322 325 326 327 328 331 332 333
306 308 307 310 313 315 316 316 317 316 318 317 318 319 319 320 321 323 325 327 326 325 322 320 320 319 318 317 317 318 317 318 320 317 317 315 320 324 328 327 328 331 335
306 307 307 309 313 314 316 317 317 318 318 318 319 319 318 319 319 320 322 323 324 325 324 322 321 320 318 316 317 318 319 317 318 320 318 314 312 319 325 328 328 330 334
307 307 307 309 312 314 316 317 317 317 318 319 317 317 317 316 317 319 320 321 323 324 323 323 321 320 318 317 317 319 320 320 318 320 323 321 322 317 315 325 327 331 331
307 306 307 311 314 315 316 317 317 317 318 319 318 318 317 317 318 319 319 321 321 325 323 322 320 319 319 319 318 319 319 321 320 321 322 322 323 323 322 316 322 327 329
307 307 309 312 311 314 315 316 316 316 318 318 319 319 317 317 316 317 317 317 319 322 322 321 321 320 320 319 319 320 320 320 321 323 325 323 319 320 320 320 320 321 326
306 307 309 309 310 312 314 315 315 316 317 319 320 318 318 318 317 317 317 316 317 320 319 320 320 321 321 321 321 321 321 321 322 323 324 323 323 324 325 324 321 320 324
307 308 309 310 311 312 314 314 314 315 317 319 319 318 319 317 316 317 317 316 316 318 319 321 322 323 324 323 323 323 322 322 324 323 324 324 324 328 327 324 323 318 320
306 307 309 310 311 312 314 314 313 315 316 318 318 318 319 317 317 318 317 316 317 319 320 321 322 323 324 324 324 324 325 324 324 324 325 326 325 327 328 328 327 321 315
307 308 308 309 310 312 313 314 314 313 314 317 318 319 319 318 318 318 317 317 318 320 320 321 322 323 324 324 324 325 327 327 325 326 327 326 327 327 327 326 326 324 323
308 309 308 310 310 312 312 313 314 313 314 317 317 321 320 319 318 319 318 318 318 319 320 322 322 323 323 323 325 325 326 326 326 326 326 325 326 325 326 326 327 324 326
308 309 309 308 309 310 311 311 313 314 314 317 318 321 321 320 318 318 318 318 318 320 321 323 323 323 323 324 325 325 326 326 325 325 325 324 325 325 325 326 324 325 326
307 307 307 308 309 309 309 310 312 314 314 316 316 320 320 318 318 317 318 318 319 320 322 323 323 322 323 322 322 323 324 326 326 326 325 325 325 324 324 325 324 325 325
308 309 308 307 307 308 309 311 313 313 313 314 318 319 319 319 318 319 319 319 320 321 322 323 323 323 324 323 322 323 325 326 326 326 326 326 326 325 324 324 324 324 323
308 309 309 307 306 307 309 313 313 313 313 313 318 318 318 319 319 319 320 320 321 322 323 324 323 324 323 323 322 322 323 325 326 326 326 326 324 321 323 325 324 324 323
309 310 310 309 308 308 309 312 314 312 313 312 318 318 319 320 319 319 319 320 321 321 323 323 324 323 324 305 311 319 322 325 326 323 323 323 320 316 313 315 316 321 323
310 310 311 311 310 310 311 310 312 312 312 312 318 318 319 319 318 319 319 319 319 320 321 320 322 323 320 302 305 311 325 324 325 324 324 325 323 323 321 312 312 313 312
311 312 312 311 310 311 310 312 312 312 312 312 316 317 319 319 318 318 318 316 316 317 317 317 320 320 317 302 303 310 325 324 325 326 326 326 324 322 324 325 324 324 323
313 313 313 312 309 311 312 312 311 311 311 311 314 315 317 318 317 317 316 314 314 314 315 316 320 320 316 300 302 317 325 325 325 326 325 325 324 305 308 324 321 316 314
314 313 313 312 310 311 312 312 310 311 311 312 313 313 317 318 316 316 315 314 314 314 314 314 318 313 318 300 302 316 323 321 321 322 321 311 318 301 304 321 316 314 312
314 314 313 312 312 311 313 312 310 311 313 314 313 312 316 317 317 315 315 314 313 313 312 311 311 315 315 312 300 306 322 320 319 320 318 320 304 299 298 304 315 313 310
312 313 313 313 312 311 313 312 310 313 313 313 313 311 313 318 316 316 315 313 312 311 310 309 309 308 311 304 300 301 308 310 319 318 318 314 298 297 296 304 301 297 303
313 314 314 313 311 312 314 312 312 311 312 313 312 311 311 318 317 316 314 312 312 311 309 310 309 309 307 306 300 299 299 302 316 318 310 297 295 295 298 297 296 297 312
312 313 313 311 310 312 314 315 312 312 312 312 312 310 309 314 317 318 317 314 312 311 310 310 310 310 308 306 305 308 307 301 306 302 302 299 298 297 300 301 300 308 314
312 314 313 311 311 312 313 314 312 311 311 312 312 310 310 312 317 317 316 317 317 313 313 312 312 310 309 308 301 305 309 311 305 301 302 303 303 302 301 301 303 307 312
312 313 313 312 312 313 313 313 313 311 311 310 309 310 311 310 316 316 311 295 300 303 299 300 309 313 305 298 295 294 295 294 294 304 304 304 304 304 302 301 301 305 309
Wind_Speed
5 4 9 12 11 11 13 11 10 7 5 2 2 3 2 2 2 2 4 4 4 4 4 3 3 3 4 3 4 3 4 2 2 3 2 1 2 1 1 1 1 1 1
3 4 7 11 16 16 14 11 9 8 5 3 3 2 2 1 2 2 1 3 4 4 4 4 3 4 3 3 4 4 3 2 3 2 2 2 2 2 2 2 1 2 2
10 7 9 9 12 15 13 12 9 8 6 5 2 3 2 1 2 1 1 2 2 3 4 4 3 4 3 3 3 4 4 3 2 1 3 2 2 1 2 2 2 3 3
1 6 8 9 13 11 9 9 8 8 6 6 3 3 3 1 2 1 0 1 1 2 3 4 4 4 3 4 4 3 2 3 3 1 2 1 2 3 2 2 1 4 4
8 9 9 12 11 10 9 8 8 7 6 5 4 4 2 2 1 1 1 0 2 2 3 3 4 4 3 3 4 4 4 2 3 3 2 1 1 2 3 3 2 3 3
8 9 8 12 8 7 7 7 8 6 5 5 4 5 4 4 2 0 0 1 1 2 2 4 3 3 3 4 4 4 4 3 2 2 2 3 3 2 2 4 3 5 2
11 12 16 12 9 9 8 7 7 6 6 5 4 5 4 3 2 2 1 1 1 2 2 3 3 1 3 4 4 4 4 4 3 3 2 2 2 2 3 5 3 3 3
9 12 13 12 12 9 8 8 7 6 6 5 5 4 4 3 2 2 1 2 1 3 2 3 2 3 4 3 4 3 3 4 3 4 3 2 3 2 6 4 5 5 3
8 12 11 10 10 9 9 9 8 5 6 5 5 4 4 4 3 2 2 3 2 2 3 2 4 4 3 3 3 2 3 3 3 4 4 2 3 4 4 4 7 4 4
8 10 9 10 7 7 7 7 7 7 6 5 5 4 5 5 4 3 4 5 3 2 3 2 4 4 4 4 5 4 3 4 3 4 6 5 4 5 5 5 5 5 6
12 12 9 7 8 7 7 7 6 7 5 5 5 5 5 5 4 3 4 4 3 3 3 3 4 3 5 4 5 4 3 5 5 5 6 7 7 7 7 5 6 7 8
9 10 11 9 8 8 7 7 6 6 5 5 5 4 5 5 5 4 4 4 4 2 3 4 4 4 4 5 6 5 5 6 5 6 7 8 7 9 8 7 8 8 7
9 8 8 9 8 7 7 6 6 6 5 5 5 5 5 5 5 5 4 4 4 4 3 3 5 5 5 5 4 4 5 6 5 6 7 8 10 9 8 8 8 8 8
10 10 8 8 7 7 7 6 6 5 6 5 5 6 5 5 5 5 5 5 4 4 4 4 5 5 5 5 5 6 6 6 6 7 7 7 10 11 11 8 9 9 9
11 13 12 9 7 7 6 5 5 6 6 6 6 5 5 5 5 5 5 5 5 4 4 6 6 5 5 4 7 8 8 6 7 8 7 6 10 10 10 8 9 10 8
13 12 12 11 10 10 8 6 6 6 6 6 6 6 6 6 5 5 5 5 4 4 4 4 6 6 4 9 9 8 7 5 7 8 8 8 10 10 12 13 9 7 9
15 15 15 14 12 11 10 8 7 6 6 6 6 6 6 7 5 5 5 5 4 3 4 4 4 5 6 8 10 9 6 5 7 8 8 8 5 9 10 12 13 11 11
14 14 13 11 9 8 8 7 7 7 7 6 6 6 7 7 6 6 4 4 3 4 4 3 3 5 4 10 10 10 8 6 7 8 10 10 7 7 9 9 7 5 4
18 15 14 13 10 12 10 8 7 7 7 7 7 6 6 8 7 7 6 3 4 3 2 3 4 6 5 6 9 8 8 8 9 8 9 9 7 7 10 7 6 3 2
13 14 14 10 13 11 11 10 8 8 8 8 9 7 7 10 9 7 7 4 3 4 4 4 3 6 6 5 8 7 5 8 5 5 5 9 6 8 7 5 4 5 4
18 13 14 15 15 11 13 11 9 10 11 8 7 7 7 9 9 8 4 5 5 5 5 5 3 3 4 6 7 8 4 6 6 5 4 4 7 7 6 4 4 2 6
16 15 15 13 12 13 14 12 12 12 7 8 8 7 7 6 6 9 5 5 7 6 5 5 4 3 2 3 6 9 7 7 6 5 3 3 6 6 8 6 6 9 6
18 16 16 13 11 14 15 15 13 8 8 8 8 7 7 5 7 8 8 5 5 6 5 3 3 3 3 2 4 5 6 8 4 3 4 9 7 9 6 3 8 8 4
16 15 15 15 15 14 16 15 13 12 11 10 7 7 9 6 5 4 6 7 6 4 5 4 3 2 2 3 3 3 4 8 6 7 6 6 6 5 5 5 4 3 4
13 15 16 15 16 14 13 10 14 14 12 10 8 7 6 9 7 5 5 7 7 10 8 6 6 6 4 5 7 8 5 4 5 8 3 2 2 2 2 2 3 3 4
11 14 14 13 14 16 15 12 15 16 14 11 7 7 7 7 7 7 4 7 1 9 6 6 9 6 8 12 13 10 7 12 14 3 3 3 4 5 5 4 4 3 5
Wind_Direction
290 167 142 137 135 139 145 151 151 172 151 152 175 217 207 235 279 259 230 213 214 199 190 196 194 185 198 195 184 173 178 180 158 125 91 64 17 317 210 153 125 151 253
217 148 145 156 162 156 152 146 156 165 177 167 194 144 147 225 252 269 258 215 213 203 182 185 194 178 180 195 183 171 141 151 174 133 130 90 11 62 78 66 151 180 102
204 181 161 157 145 153 152 153 161 169 182 181 118 80 65 13 338 300 20 267 226 200 193 181 177 181 176 187 181 176 158 134 182 195 140 133 180 131 37 99 79 120 131
296 125 140 143 152 145 144 139 152 169 185 166 128 147 153 195 237 248 289 282 92 130 158 181 178 184 172 183 187 171 166 151 150 189 208 145 156 145 141 72 130 108 122
161 161 149 143 137 137 149 147 155 171 164 157 152 145 153 214 215 115 116 326 33 139 152 153 157 164 184 192 179 163 189 183 158 159 164 129 352 65 124 130 142 82 59
125 112 117 136 126 126 133 147 159 170 156 159 162 146 179 195 173 138 271 339 1 88 115 142 169 170 184 174 179 184 186 187 179 207 171 158 133 161 134 130 136 131 82
126 139 149 145 134 149 153 153 164 155 166 176 157 158 194 183 155 174 217 144 168 107 113 134 147 139 158 162 155 168 170 181 186 199 205 117 159 164 127 133 114 119 107
141 153 150 146 151 153 155 158 158 149 171 172 155 162 168 135 139 178 169 137 147 129 134 128 132 113 93 135 147 149 161 161 144 150 150 188 177 156 139 138 123 123 75
156 150 152 147 149 153 163 160 159 163 175 180 159 165 168 142 150 148 126 108 110 131 121 118 90 76 85 113 137 143 162 143 145 140 175 151 141 147 98 136 127 126 135
153 150 150 150 151 156 153 154 165 165 181 179 162 181 172 146 154 155 128 129 126 115 112 85 84 82 76 81 102 119 134 122 118 133 140 118 136 116 107 105 97 94 125
163 159 149 156 150 144 152 167 163 159 171 163 160 192 161 150 159 146 138 143 129 136 139 114 104 105 98 99 105 102 113 111 125 120 120 105 113 109 105 106 97 92 105
152 153 153 144 147 157 159 180 169 173 186 165 167 186 158 141 161 148 151 145 138 154 165 133 117 115 112 109 123 117 101 102 96 102 98 104 109 110 109 105 103 105 105
133 131 135 155 161 163 170 181 184 188 171 157 161 157 154 142 152 157 154 144 139 144 137 128 125 130 130 118 105 96 87 81 90 101 112 123 121 115 114 115 115 113 108
151 152 154 161 162 169 171 183 189 176 156 154 153 154 151 145 145 142 133 128 141 139 135 135 127 125 122 116 107 90 97 84 86 89 91 105 119 123 129 119 116 115 117
164 169 168 164 168 165 174 185 174 162 158 154 157 159 130 121 126 128 123 126 131 131 132 121 123 128 120 120 116 113 112 87 90 93 91 94 107 112 121 128 126 128 128
179 169 170 164 172 174 176 181 177 169 160 162 164 145 130 126 128 132 137 134 133 129 126 127 136 138 125 136 124 127 126 112 112 102 102 108 99 97 104 112 99 125 135
175 172 177 176 176 177 169 181 183 153 168 165 158 149 140 131 141 140 138 139 139 136 128 114 132 134 136 143 139 129 129 110 107 111 120 110 109 115 107 89 94 97 101
180 177 173 174 172 172 163 165 151 168 167 169 166 150 147 142 143 135 137 120 114 138 135 129 130 132 138 153 133 120 119 114 106 112 118 118 113 111 111 119 118 106 79
181 175 169 170 157 169 167 159 159 165 166 174 174 165 156 152 152 149 152 150 130 122 132 138 137 127 139 141 132 114 122 120 114 113 119 126 128 129 124 122 118 95 99
168 164 162 159 160 176 159 157 173 165 186 184 183 165 155 155 165 159 162 147 131 129 124 118 133 129 146 170 140 127 121 114 115 87 102 100 126 145 131 113 133 143 157
165 152 156 167 176 162 160 172 168 187 196 181 161 159 162 164 165 155 158 143 131 120 113 106 106 125 162 171 170 145 130 126 130 139 139 165 157 167 157 131 146 154 136
155 164 162 173 166 163 165 173 185 196 166 164 164 164 169 161 146 161 149 143 135 130 133 125 102 89 91 142 187 171 141 144 138 158 161 157 175 173 171 174 169 124 126
168 169 169 161 166 168 174 177 193 161 157 158 171 164 156 162 154 148 146 138 143 147 155 154 147 143 129 124 176 186 159 160 142 151 147 134 146 151 156 182 138 144 153
170 163 159 168 170 177 180 190 162 166 162 171 175 159 160 156 155 143 157 154 161 158 161 163 171 164 154 159 156 162 145 125 95 100 87 93 92 74 97 106 151 179 179
160 163 170 174 175 171 183 165 160 160 168 172 172 166 165 169 164 153 170 177 187 176 174 192 173 166 192 213 180 164 166 169 128 110 100 104 105 131 147 142 165 168 156
182 166 173 165 166 172 173 168 166 165 165 169 170 178 170 172 168 163 144 48 33 207 224 174 173 199 196 172 180 187 154 132 143 102 149 177 182 182 185 182 177 187 181